DELTA 1 DEB, 10648

Orbit data source: Space-Track

DELTA 1 DEB, 10648 is space debris in SSO originally from a launch on Thu, 29 Jul 1976 UTC launched from the Air Force Western Test Range (AFWTR). Debris objects in space refer to the collection of defunct objects orbiting the Earth. Examples of debris include non-operational satellites, rocket bodies, and fragments generated from explosions, collisions, or faulty payload assembly.

Loading next visibility...
Identifier
10648, 1976-077J
Orbit
SSO
Country
Flag of USUS
Related business
Manufacturer
Unknown
Mission
Spacecraft
Bus & Motor
Unknown
Mass
Unknown
Launch date (UTC)
1976-07-29 (50 years ago)
Launch vehicle
Unknown
Launch site
Air Force Western Test Range (AFWTR)
Object type
Payload
Rocket body
Debris
Shape & HBR
Unknown shape, 0.1 m
Radar Cross Section
Medium (>0.1 m² and <1 m²)

Expand to show TLE details & history
Last TLE update: 8 hours ago

TLE from 8 hours ago
0 DELTA 1 DEB
1 10648U 76077J   26256.05669992  .00000145  00000-0  17478-2 0  9992
2 10648 101.9514 287.7703 0140075 195.4563 191.3756 12.20081179230958
Epoch: 2026-09-13T01:21Z
TLE epoch observation values (Epoch: 2026-09-13T01:21:38.873Z)
Latitude
25.93388°
Longitude
-90.57852°
Altitude
1,704.526 km
Speed
6.977 km/s
True Right ascension
18h 47m 33s
True Declination
25° 48' 53"
Sunlit
Object was in daylight at epoch
Visualization orbit readout
Latitude
Unknown
Longitude
Unknown
Altitude
Unknown
Speed
Unknown
Apparent Right ascension
Unknown
Apparent Declination
Unknown
Sunlit
N/A
Visualization observer readout
Local Sidereal Time
01:49:44
Azimuth
Unknown
Elevation
Unknown
Doppler factor
Unknown
Orbital elements
Apogee altitude
1,701.396 km
Perigee altitude
1,478.175 km
Semi-major axis
7,967.922 km
Eccentricity
0.01401
Inclination
101.9514°
RAAN
287.7703°
Arg. of periapsis
195.4563°
True anomaly
191.06435°
Mean anomaly
191.3756°
Eccentric anomaly
191.21945°
Mean motion
3.05159 °/min
Orbital period
117.97 mins
BSTAR
0.0017478
Loading maneuver chart data...
Computing Atmospheric mass density...
Loading historical data...
Loading historical data...
Loading historical data...
Loading historical data...
Loading historical data...
Loading historical data...
Loading historical data...

Documentation

Showing up to 5 results
|